Find Starlink 33681

NORAD ID: 63438 Int'l Des: 2025-069 Owner: SPXS Country: US Constellation: starlink operational
LEOCIRCULAR

現在のビュー

3D地球を読み込み中...

About Starlink 33681

Starlink 33681 (NORAD 63438) is a starlink constellation satellite (v2 mini) launched Apr 4, 2025 by SPXS of US. It operates in LEO, CIRCULAR orbit with a mass of 575.00 kg.

次回通過

Passes for default location (London). Set your location on the main map for personalized predictions.

高度履歴

Loading altitude history...

軌道要素

1 63438U 25069F 26263.41755813 .00011417 00000-0 34846-3 0 9991
2 63438 53.1593 308.3705 0001017 84.5710 275.5409 15.34405674 83341
Epoch: Sep 20, 2026 • Age: 17 hours

現在のステータス

高度 480.6 km
遠地点 / 近地点 N/A
速度 7.62 km/s
衛星直下点 -50.03°S, 146.57°E
打ち上げ日 Apr 4, 2025
運用期間 1.4 years
タイプ internet

技術仕様

分類 Payload
質量 575.00 kg
乾燥質量 530.00 kg
長さ 0.30 m
スパン 29.00 m
形状 ? Box + pan
製造者 SPXS
バスタイプ Starlink V2MO
フェーズステータス In Orbit
所有者/国 SPXS/US

Most Searched